Probability
0 0 0 0 0 0 0 0 0 0 0 0 0 0 0 0 0 0 0 0 0 0 0 0 0 0 0 0 0 0 0 0 0 0 0 0 0 0 0 0 0 0 0 0
0 0 0 0 0 0 0 0 0 0 0 0 0 0 0 0 0 0 0 0 0 0 0 0 0 0 0 0 0 0 0 0 0 0 0 0 0 0 0 0 0 0 0 0
0 0 0 0 0 0 0 0 0 0 0 0 0 0 0 0 0 0 0 0 0 0 0 0 0 0 0 0 0 0 0 0 0 0 0 0 0 0 0 0 0 0 0 0
0 0 0 0 0 0 0 0 0 0 0 0 0 0 0 0 0 0 0 0 0 0 0 0 0 0 0 0 0 0 0 0 0 0 0 0 0 0 0 0 0 0 0 0
0 0 0 0 0 0 0 0 0 0 0 0 0 0 0 0 0 0 0 0 0 0 0 0 0 0 0 0 0 0 0 0 0 0 0 0 0 0 0 0 0 0 0 0
0 0 0 0 0 0 0 0 0 0 0 0 0 0 0 0 0 0 0 0 0 0 0 0 0 0 0 0 0 0 0 0 0 0 0 0 0 0 0 0 0 0 0 0
0 0 0 0 0 0 0 0 0 0 0 0 0 0 0 0 0 0 0 0 0 1 1 1 1 0 0 0 0 0 0 0 0 0 0 0 0 0 0 0 0 0 0 0
0 0 0 0 0 0 0 0 0 0 0 0 0 0 0 0 0 0 0 0 1 2 3 3 1 0 0 0 0 0 0 0 0 0 0 0 0 0 0 0 0 0 0 0
0 0 0 0 0 0 0 0 0 0 0 0 0 0 0 0 0 0 0 0 1 2 3 3 1 0 0 0 0 0 0 0 0 0 0 0 0 0 0 0 0 0 0 0
0 0 0 0 0 0 0 0 0 0 0 0 0 0 1 1 1 1 1 1 0 1 2 2 1 0 0 0 0 0 0 0 0 0 0 0 0 0 0 0 0 0 0 0
0 0 0 0 0 0 0 0 0 0 0 0 0 0 1 2 2 2 3 3 2 1 1 2 1 0 0 0 0 0 0 0 0 0 0 0 0 0 0 0 0 0 0 0
0 0 0 0 0 0 0 0 0 0 0 0 0 0 1 1 1 1 3 4 4 2 1 1 2 1 0 0 0 0 0 0 0 0 0 0 0 0 0 0 0 0 0 0
0 0 0 0 0 0 0 0 0 0 0 0 0 0 0 0 0 0 1 3 4 2 1 1 2 1 0 0 0 0 0 0 0 0 0 0 0 0 0 0 0 0 0 0
0 0 0 0 0 0 0 0 0 0 0 0 0 0 0 0 0 0 0 1 1 1 0 1 1 1 0 0 0 0 0 0 0 0 0 0 0 0 0 0 0 0 0 0
0 0 0 0 0 0 0 0 0 0 0 0 0 0 0 0 0 0 0 0 0 0 0 0 0 0 0 0 0 0 0 0 0 0 0 0 0 0 0 0 0 0 0 0
0 0 0 0 0 0 0 0 0 0 0 0 0 0 0 0 0 0 0 0 0 0 0 0 0 0 0 0 0 0 0 0 0 0 0 0 0 0 0 0 0 0 0 0
0 0 0 0 0 0 0 0 0 0 0 0 0 0 0 0 0 0 0 0 0 0 0 0 0 0 0 0 0 0 0 0 0 0 0 0 0 0 0 0 0 0 0 0
0 0 0 0 0 0 0 0 0 0 0 0 0 0 0 0 0 0 0 0 0 0 0 0 0 0 0 0 0 0 0 0 0 0 0 0 0 0 0 0 0 0 0 0
0 0 0 0 0 0 0 0 0 0 0 0 0 0 0 0 0 0 0 0 0 0 0 0 0 0 0 0 0 0 0 0 0 0 0 0 0 0 0 0 0 0 0 0
0 0 0 0 0 0 0 0 0 0 0 0 0 0 0 0 0 0 0 0 0 0 0 0 0 0 0 0 0 0 0 0 0 0 0 0 0 0 0 0 0 0 0 0
0 0 0 0 0 0 0 0 0 0 0 0 0 0 0 0 0 0 0 0 0 0 0 0 0 0 0 0 0 0 0 0 0 0 0 0 0 0 0 0 0 0 0 0
0 0 0 0 0 0 0 0 0 0 0 0 0 0 0 0 0 0 0 0 0 0 0 0 0 0 0 0 0 0 0 0 0 0 0 0 0 0 0 0 0 0 0 0
0 0 0 0 0 0 0 0 0 0 0 0 0 0 0 0 0 0 0 0 0 0 0 0 0 0 0 0 0 0 0 0 0 0 0 0 0 0 0 0 0 0 0 0
0 0 0 0 0 0 0 0 0 0 0 0 0 0 0 0 0 0 0 0 0 0 0 0 0 0 0 0 0 0 0 0 0 0 0 0 0 0 0 0 0 0 0 0
0 0 0 0 0 0 0 0 0 0 0 0 0 0 0 0 0 0 0 0 0 0 0 0 0 0 0 0 0 0 0 0 0 0 0 0 0 0 0 0 0 0 0 0
0 0 0 0 0 0 0 0 0 0 0 0 0 0 0 0 0 0 0 0 0 0 0 0 0 0 0 0 0 0 0 0 0 0 0 0 0 0 0 0 0 0 0 0
0 0 0 0 0 0 0 0 0 0 0 0 0 0 0 0 0 0 0 0 0 0 0 0 0 0 0 0 0 0 0 0 0 0 0 0 0 0 0 0 0 0 0 0
Wind_Speed
16 17 17 18 18 17 17 19 21 22 21 19 18 16 13 11 9 9 8 7 6 6 5 5 5 4 3 2 2 2 3 3 3 3 4 4 4 4 3 3 4 3 4 4
16 16 16 18 20 20 21 20 21 22 21 17 14 10 10 9 9 10 9 7 6 6 6 6 6 6 5 4 4 4 5 6 6 6 6 6 6 5 5 4 4 4 4 5
14 13 13 14 12 13 13 14 16 18 17 15 14 12 11 9 9 9 9 8 7 7 6 6 6 6 6 5 5 5 6 6 7 8 7 8 8 7 6 6 5 5 5 6
10 9 10 6 6 9 13 14 14 15 15 15 15 11 10 9 8 9 8 7 7 6 6 6 6 6 6 6 6 6 6 6 7 8 8 7 7 7 6 6 5 5 5 7
8 10 11 9 7 8 11 14 13 12 12 13 11 9 11 8 7 8 8 7 6 6 6 6 6 7 7 6 6 6 7 7 7 8 8 8 8 8 7 6 6 6 6 7
8 11 9 7 9 7 10 13 7 10 13 13 11 12 8 2 3 6 7 7 7 7 7 7 7 7 7 8 7 7 7 7 7 7 8 8 8 8 7 7 6 6 6 6
11 12 8 7 10 10 11 11 17 19 18 17 15 14 12 7 5 7 8 8 9 8 8 8 8 8 9 8 8 7 6 7 7 8 7 7 8 7 7 8 7 7 8 6
7 8 4 13 15 14 17 21 22 21 20 19 18 17 16 12 10 9 9 10 11 10 9 9 9 9 10 9 8 7 7 8 8 8 8 8 8 8 8 8 9 8 7 7
7 9 14 17 18 19 19 21 21 20 20 20 20 18 17 14 12 11 11 11 11 12 11 10 11 11 11 9 8 8 8 9 9 10 8 8 9 9 9 9 8 8 8 7
9 9 16 18 19 21 21 21 21 20 20 19 19 18 17 14 12 11 11 11 12 13 13 12 12 12 11 9 8 9 10 10 9 10 9 9 7 8 8 9 8 8 7 7
10 11 14 15 20 23 22 21 20 20 18 18 17 17 16 13 12 11 10 11 12 14 14 14 13 13 12 11 10 10 10 10 10 10 9 8 8 5 6 6 5 6 7 7
6 12 11 13 18 21 21 21 21 20 19 18 17 16 16 14 12 10 10 10 13 15 15 15 14 14 13 12 12 11 10 10 9 9 9 8 8 8 5 4 5 4 3 0
8 12 11 14 16 17 18 19 19 18 18 18 17 16 15 14 13 11 10 10 14 16 16 16 15 15 14 14 13 13 12 11 9 9 9 9 9 9 9 6 4 3 3 2
10 12 13 16 17 18 18 19 18 16 15 15 15 15 15 14 14 13 11 10 12 14 15 15 16 16 15 15 15 14 13 11 10 9 9 9 9 9 9 10 10 9 7 6
12 13 14 16 17 17 18 18 18 17 17 17 14 13 14 15 15 14 13 11 10 12 14 16 17 17 16 16 16 15 13 11 11 10 10 10 10 10 9 11 10 11 12 11
16 16 17 18 19 20 20 20 20 19 18 18 17 15 14 14 14 13 12 11 10 10 12 14 16 16 16 17 17 14 13 12 11 10 11 10 10 10 10 10 11 11 12 12
17 18 20 21 21 22 22 21 21 21 20 20 19 17 15 14 14 13 13 12 12 11 11 12 14 14 16 17 17 13 13 13 14 12 11 11 11 11 11 11 11 11 11 11
17 19 21 22 22 23 23 23 22 22 22 22 21 19 17 15 14 13 13 13 12 12 11 11 11 13 16 18 16 13 12 12 14 14 12 12 12 12 12 12 13 13 11 11
20 21 22 23 22 22 22 23 23 22 22 21 21 20 19 16 14 13 12 12 12 11 10 9 10 12 15 17 16 12 13 13 14 14 13 12 12 13 13 13 13 13 13 12
23 23 23 23 23 22 22 22 23 22 22 21 21 21 20 18 15 14 12 11 10 8 9 9 9 11 13 15 16 14 15 15 14 14 14 13 14 14 14 14 14 14 13 12
23 23 24 23 23 22 22 22 21 22 22 22 21 21 20 19 17 15 12 11 10 8 8 9 8 9 11 12 16 15 15 15 15 14 14 14 14 15 14 14 14 14 13 13
23 22 24 23 23 23 21 20 21 22 22 21 20 20 19 18 17 15 15 11 10 8 8 8 8 8 9 10 13 15 15 16 15 14 14 14 14 14 14 15 14 14 13 13
21 22 23 23 23 23 23 21 20 20 20 20 20 19 18 16 13 12 13 10 9 8 8 9 9 7 8 10 11 14 16 17 16 15 15 14 14 14 14 15 14 14 13 13
21 22 22 22 22 22 22 21 20 18 20 20 18 19 17 14 12 12 12 11 11 10 10 9 11 10 10 10 11 13 15 16 15 15 15 15 14 14 14 14 14 14 14 15
21 21 21 21 20 17 19 20 20 19 19 16 18 18 15 13 13 12 12 13 12 11 11 12 14 14 12 11 13 13 14 14 15 15 15 15 14 14 14 14 14 13 13 13
19 17 17 18 17 16 15 15 15 15 15 15 14 14 13 12 14 13 12 14 16 13 12 11 12 12 12 13 13 14 14 14 15 15 16 15 16 16 14 14 17 13 12 12
19 17 14 15 15 15 15 15 16 16 14 14 15 14 13 13 13 13 14 12 12 11 11 11 11 11 11 11 12 13 13 13 13 15 15 15 14 13 14 15 13 12 12 11
Wind_Direction
279 286 287 283 279 271 257 260 272 282 287 295 303 305 301 292 280 268 266 262 254 249 245 245 235 224 225 209 195 189 172 176 170 157 150 142 130 121 121 124 125 125 127 126
284 282 282 279 274 271 270 268 268 274 280 289 297 299 291 279 269 267 270 265 252 244 242 241 233 223 217 213 207 208 200 193 184 172 170 166 156 150 148 142 133 128 128 128
285 293 291 274 275 276 274 271 272 276 285 296 299 296 290 282 270 269 273 267 253 248 244 239 232 223 221 217 212 215 213 200 185 182 180 174 165 159 159 156 149 137 136 124
282 290 265 289 327 298 290 287 287 284 288 294 296 296 285 272 270 271 268 262 252 246 238 229 223 217 223 221 218 222 215 199 184 182 177 169 167 164 162 157 150 145 140 127
277 283 284 291 305 307 297 293 296 300 305 305 308 290 267 247 242 255 260 254 248 238 231 222 219 217 222 226 222 220 212 197 184 179 176 173 173 169 165 159 154 153 139 134
272 285 288 324 11 349 300 284 330 333 320 313 302 286 300 343 215 231 234 232 229 223 220 215 216 217 224 228 226 222 211 196 184 182 183 181 173 167 163 159 157 154 135 135
275 277 278 354 1 322 294 326 340 322 312 303 294 290 303 291 252 232 226 219 214 215 212 212 208 210 226 234 231 222 203 187 183 184 183 175 166 163 162 162 155 144 133 126
281 277 293 7 337 324 316 316 310 306 303 299 297 292 287 279 264 242 228 217 208 206 208 204 203 209 224 234 231 216 200 191 185 181 181 169 167 167 166 161 156 153 147 142
302 301 329 331 321 318 317 311 307 302 299 297 294 291 288 283 271 252 233 220 209 204 203 200 200 210 224 226 219 210 204 196 185 181 181 174 174 172 171 177 179 168 166 164
298 302 325 326 333 334 327 318 312 306 302 298 294 291 288 287 277 258 238 222 210 205 203 202 201 207 218 221 212 209 208 198 188 182 181 180 184 183 184 185 187 181 179 173
293 327 336 340 343 339 334 330 326 321 315 310 305 299 293 287 278 265 245 226 212 207 206 203 199 203 209 210 206 210 208 199 193 190 188 183 190 186 202 192 191 193 185 178
333 344 326 333 341 343 343 342 341 339 336 332 328 322 313 301 292 280 259 231 217 212 208 204 198 200 204 204 204 209 208 203 198 193 188 190 186 174 73 63 100 84 47 186
345 331 333 335 337 342 341 342 344 347 348 346 345 343 337 326 314 302 281 249 225 218 210 203 199 199 199 198 201 207 210 204 201 197 190 196 194 191 176 143 105 125 137 107
345 339 334 338 333 332 332 332 334 336 339 341 342 343 342 336 329 320 303 278 249 229 218 207 201 199 196 194 197 204 208 202 203 201 198 199 198 200 192 181 178 179 179 179
333 327 318 316 317 320 322 323 325 326 328 328 330 333 336 335 332 326 319 303 272 241 225 213 206 201 193 191 195 201 205 202 201 202 200 202 199 202 201 194 189 183 175 170
315 313 313 314 315 316 316 318 318 317 316 316 317 319 322 323 323 322 322 316 295 262 237 222 213 204 191 191 192 197 203 203 198 202 203 200 200 202 201 196 195 190 186 180
306 310 314 314 314 314 314 313 309 307 307 305 306 306 307 311 315 319 320 316 300 283 262 237 223 209 195 192 193 197 198 190 191 206 207 202 200 201 201 199 199 197 196 186
298 300 304 306 309 310 309 308 306 305 302 301 299 296 294 297 300 304 309 310 305 290 275 257 236 214 200 195 196 199 197 192 192 206 207 204 202 202 202 202 202 202 201 183
307 305 305 305 305 305 305 306 305 303 300 298 296 293 291 289 287 288 293 296 296 291 282 272 251 229 209 199 194 200 199 197 192 200 206 199 202 206 205 205 205 205 207 201
314 312 310 308 306 305 305 305 305 303 302 300 295 291 288 286 284 283 283 280 275 281 291 282 257 234 220 203 196 201 201 200 199 198 202 201 202 208 209 209 209 210 210 211
319 316 314 311 308 306 305 306 306 303 302 300 295 291 289 286 282 279 275 275 277 281 287 280 258 237 224 206 197 207 203 200 201 201 201 203 203 206 210 212 213 214 214 216
319 316 314 313 310 307 306 306 305 303 301 300 297 295 292 288 283 278 271 267 268 271 276 275 263 243 224 212 207 213 210 205 202 202 203 203 204 206 209 212 213 215 217 219
317 316 314 313 311 309 306 305 305 306 304 302 298 295 291 286 282 278 276 269 261 258 264 272 275 263 221 221 219 216 217 212 206 204 203 204 206 207 209 212 214 216 217 219
316 315 314 312 310 308 307 307 307 305 302 300 296 293 291 287 278 269 267 263 248 244 252 259 264 257 232 233 229 223 219 216 212 208 206 205 207 208 208 210 212 214 217 221
313 312 311 312 311 309 308 307 306 304 302 299 297 296 291 283 280 278 275 272 265 251 251 244 238 236 236 234 227 225 223 218 214 210 208 207 208 209 209 209 212 214 214 217
313 310 309 308 309 307 308 308 306 302 298 295 293 292 288 283 281 279 274 269 264 255 253 249 239 229 230 227 224 222 222 217 212 214 214 209 210 210 210 211 214 214 215 218
313 313 311 310 311 312 312 310 307 305 302 297 295 293 288 282 278 275 274 271 265 258 253 245 240 235 229 226 223 221 222 222 216 211 213 212 210 210 211 214 215 213 215 217